Time,TemperatureF,DewpointF,PressureIn,WindDirection,WindDirectionDegrees,WindSpeedMPH,WindSpeedGustMPH,Humidity,HourlyPrecipIn,Conditions,Clouds,dailyrainin,SolarRadiationWatts/m^2,SoftwareType,DateUTC
2013-04-20 00:00:00,50.1,47.3,29.74,WNW,302,0.2,1.1,90,0.00,CLR,,0.91,0.0,WeatherDisplay:10.37,2013-04-20 04:00:00,
2013-04-20 00:01:00,50.1,47.3,29.74,WNW,301,1.7,2.0,90,0.00,RA,,0.00,0.0,WeatherDisplay:10.37,2013-04-20 04:01:00,
2013-04-20 00:06:00,49.9,47.1,29.74,SSW,206,2.6,4.6,90,0.01,RA,,0.01,0.0,WeatherDisplay:10.37,2013-04-20 04:06:00,
2013-04-20 00:11:00,49.8,47.0,29.79,SSW,206,1.9,2.3,90,0.01,,,0.01,0.0,WeatherDisplay:10.37,2013-04-20 04:11:00,
2013-04-20 00:16:00,49.6,46.8,29.79,SSW,207,0.0,0.0,90,0.01,CLR,,0.01,0.0,WeatherDisplay:10.37,2013-04-20 04:16:00,
2013-04-20 00:21:00,49.6,46.8,29.79,SSW,207,0.1,1.1,90,0.01,CLR,,0.01,0.0,WeatherDisplay:10.37,2013-04-20 04:21:00,
2013-04-20 00:26:00,49.5,46.7,29.77,SSW,207,0.3,1.1,90,0.01,CLR,,0.01,0.0,WeatherDisplay:10.37,2013-04-20 04:26:00,
2013-04-20 00:31:00,49.5,46.7,29.77,SSW,206,1.0,2.3,90,0.01,CLR,,0.01,0.0,WeatherDisplay:10.37,2013-04-20 04:31:00,
2013-04-20 00:36:00,49.4,46.6,29.77,SSW,207,0.3,2.3,90,0.01,CLR,,0.01,0.0,WeatherDisplay:10.37,2013-04-20 04:36:00,
2013-04-20 00:41:00,49.1,46.0,29.77,South,186,0.4,2.3,89,0.01,CLR,,0.01,0.0,WeatherDisplay:10.37,2013-04-20 04:41:00,
2013-04-20 00:46:00,48.8,45.7,29.77,NW,317,3.1,9.2,89,0.01,CLR,,0.01,0.0,WeatherDisplay:10.37,2013-04-20 04:46:00,
2013-04-20 00:51:00,48.5,45.4,29.77,SW,233,1.5,3.5,89,0.02,RA,,0.02,0.0,WeatherDisplay:10.37,2013-04-20 04:51:00,
2013-04-20 00:56:00,48.3,45.2,29.77,West,260,4.3,11.5,89,0.02,RA,,0.02,0.0,WeatherDisplay:10.37,2013-04-20 04:56:00,
2013-04-20 01:01:00,48.2,44.8,29.77,NW,322,1.6,4.6,88,0.01,CLR,,0.02,0.0,WeatherDisplay:10.37,2013-04-20 05:01:00,
2013-04-20 01:06:00,48.0,44.6,29.77,NW,322,2.7,3.5,88,0.01,CLR,,0.02,0.0,WeatherDisplay:10.37,2013-04-20 05:06:00,
2013-04-20 01:11:00,48.2,44.8,29.77,NNW,328,1.0,2.3,88,0.01,CLR,,0.03,0.0,WeatherDisplay:10.37,2013-04-20 05:11:00,
2013-04-20 01:16:00,48.0,44.3,29.77,NNW,341,1.4,3.5,87,0.02,RA,,0.03,0.0,WeatherDisplay:10.37,2013-04-20 05:16:00,
2013-04-20 01:21:00,47.9,44.2,29.77,West,275,3.2,9.0,87,0.02,RA,,0.03,0.0,WeatherDisplay:10.37,2013-04-20 05:21:00,
2013-04-20 01:26:00,47.7,44.0,29.76,WNW,288,0.4,3.5,87,0.02,CLR,,0.03,0.0,WeatherDisplay:10.37,2013-04-20 05:26:00,
2013-04-20 01:31:00,47.7,44.0,29.76,West,275,3.1,5.0,87,0.02,CLR,,0.03,0.0,WeatherDisplay:10.37,2013-04-20 05:31:00,
2013-04-20 01:36:00,47.7,43.7,29.76,West,278,1.4,6.0,86,0.02,CLR,,0.03,0.0,WeatherDisplay:10.37,2013-04-20 05:36:00,
2013-04-20 01:41:00,47.6,43.6,29.77,SSW,211,2.6,6.9,86,0.02,CLR,,0.03,0.0,WeatherDisplay:10.37,2013-04-20 05:41:00,
2013-04-20 01:46:00,47.6,43.3,29.77,WSW,241,3.9,6.9,85,0.02,CLR,,0.03,0.0,WeatherDisplay:10.37,2013-04-20 05:46:00,
2013-04-20 01:51:00,47.6,42.7,29.77,West,270,1.9,6.9,83,0.01,CLR,,0.03,0.0,WeatherDisplay:10.37,2013-04-20 05:51:00,
2013-04-20 01:56:00,47.6,42.4,29.78,SW,230,2.9,4.6,82,0.01,CLR,,0.03,0.0,WeatherDisplay:10.37,2013-04-20 05:56:00,
2013-04-20 02:01:00,47.7,42.2,29.78,West,264,1.5,6.0,81,0.01,CLR,,0.03,0.0,WeatherDisplay:10.37,2013-04-20 06:01:00,
2013-04-20 02:06:00,47.9,42.0,29.78,West,275,0.0,6.9,80,0.01,CLR,,0.03,0.0,WeatherDisplay:10.37,2013-04-20 06:06:00,
2013-04-20 02:11:00,47.9,41.7,29.79,West,270,1.8,3.5,79,0.01,CLR,,0.03,0.0,WeatherDisplay:10.37,2013-04-20 06:11:00,
2013-04-20 02:16:00,48.2,41.3,29.79,West,267,0.9,3.5,77,0.00,CLR,,0.03,0.0,WeatherDisplay:10.37,2013-04-20 06:16:00,
2013-04-20 02:21:00,48.2,41.3,29.79,SW,231,0.3,0.0,77,0.00,CLR,,0.03,0.0,WeatherDisplay:10.37,2013-04-20 06:21:00,
2013-04-20 02:26:00,48.2,41.3,29.79,WSW,238,1.5,4.6,77,0.00,CLR,,0.03,0.0,WeatherDisplay:10.37,2013-04-20 06:26:00,
2013-04-20 02:31:00,48.2,41.0,29.79,WSW,248,1.0,1.1,76,0.00,CLR,,0.03,0.0,WeatherDisplay:10.37,2013-04-20 06:31:00,
2013-04-20 02:36:00,48.5,39.9,29.79,NW,304,4.0,6.9,72,0.00,CLR,,0.03,0.0,WeatherDisplay:10.37,2013-04-20 06:36:00,
2013-04-20 02:41:00,48.6,38.9,29.80,North,360,1.8,16.1,69,0.00,CLR,,0.03,0.0,WeatherDisplay:10.37,2013-04-20 06:41:00,
2013-04-20 02:46:00,48.8,38.7,29.80,SW,234,3.5,7.0,68,0.00,CLR,,0.03,0.0,WeatherDisplay:10.37,2013-04-20 06:46:00,
2013-04-20 02:51:00,48.8,38.3,29.80,South,181,2.8,9.2,67,0.00,CLR,,0.03,0.0,WeatherDisplay:10.37,2013-04-20 06:51:00,
2013-04-20 02:56:00,48.9,36.9,29.80,SW,226,4.0,16.1,63,0.00,CLR,,0.03,0.0,WeatherDisplay:10.37,2013-04-20 06:56:00,
2013-04-20 03:01:00,49.1,36.6,29.80,WSW,242,3.3,5.8,62,0.00,CLR,,0.03,0.0,WeatherDisplay:10.37,2013-04-20 07:01:00,
2013-04-20 03:06:00,49.1,36.2,29.80,WSW,247,2.5,8.1,61,0.00,CLR,,0.03,0.0,WeatherDisplay:10.37,2013-04-20 07:06:00,
2013-04-20 03:11:00,49.2,35.9,29.80,ESE,121,1.1,4.0,60,0.00,CLR,,0.03,0.0,WeatherDisplay:10.37,2013-04-20 07:11:00,
2013-04-20 03:16:00,49.2,36.3,29.80,WSW,240,2.2,10.4,61,0.00,CLR,,0.03,0.0,WeatherDisplay:10.37,2013-04-20 07:16:00,
2013-04-20 03:21:00,49.1,36.2,29.80,SE,130,1.8,4.6,61,0.00,CLR,,0.03,0.0,WeatherDisplay:10.37,2013-04-20 07:21:00,
2013-04-20 03:26:00,49.1,36.2,29.81,North,11,2.8,5.8,61,0.00,CLR,,0.03,0.0,WeatherDisplay:10.37,2013-04-20 07:26:00,
2013-04-20 03:31:00,48.9,36.0,29.81,West,275,2.0,7.0,61,0.00,CLR,,0.03,0.0,WeatherDisplay:10.37,2013-04-20 07:31:00,
2013-04-20 03:36:00,48.9,36.0,29.81,West,278,0.1,3.5,61,0.00,CLR,,0.03,0.0,WeatherDisplay:10.37,2013-04-20 07:36:00,
2013-04-20 03:41:00,48.8,36.4,29.82,West,271,1.5,10.4,62,0.00,CLR,,0.03,0.0,WeatherDisplay:10.37,2013-04-20 07:41:00,
2013-04-20 03:46:00,48.6,36.2,29.82,WSW,237,2.6,9.2,62,0.00,CLR,,0.03,0.0,WeatherDisplay:10.37,2013-04-20 07:46:00,
2013-04-20 03:52:00,48.6,36.2,29.82,WSW,248,1.2,3.5,62,0.00,CLR,,0.03,0.0,WeatherDisplay:10.37,2013-04-20 07:52:00,
2013-04-20 03:57:00,48.5,36.1,29.84,WSW,258,0.1,5.8,62,0.00,CLR,,0.03,0.0,WeatherDisplay:10.37,2013-04-20 07:57:00,
2013-04-20 04:02:00,48.5,36.1,29.84,West,265,0.5,4.6,62,0.00,CLR,,0.03,0.0,WeatherDisplay:10.37,2013-04-20 08:02:00,
2013-04-20 04:07:00,48.3,36.3,29.84,SSW,205,1.5,3.5,63,0.00,CLR,,0.03,0.0,WeatherDisplay:10.37,2013-04-20 08:07:00,
2013-04-20 04:12:00,48.2,36.2,29.85,WSW,248,0.2,2.3,63,0.00,CLR,,0.03,0.0,WeatherDisplay:10.37,2013-04-20 08:12:00,
2013-04-20 04:17:00,48.0,36.4,29.85,West,272,4.6,8.0,64,0.00,CLR,,0.03,0.0,WeatherDisplay:10.37,2013-04-20 08:17:00,
2013-04-20 04:22:00,47.9,35.5,29.85,West,273,3.8,6.0,62,0.00,CLR,,0.03,0.0,WeatherDisplay:10.37,2013-04-20 08:22:00,
2013-04-20 04:27:00,47.7,34.9,29.86,WSW,257,2.2,5.8,61,0.00,CLR,,0.03,0.0,WeatherDisplay:10.37,2013-04-20 08:27:00,
2013-04-20 04:32:00,47.7,34.9,29.86,WNW,292,2.9,9.2,61,0.00,CLR,,0.03,0.0,WeatherDisplay:10.37,2013-04-20 08:32:00,
2013-04-20 04:37:00,47.7,34.5,29.86,WSW,250,1.5,11.5,60,0.00,CLR,,0.03,0.0,WeatherDisplay:10.37,2013-04-20 08:37:00,
2013-04-20 04:42:00,47.7,34.1,29.86,WSW,244,0.9,6.0,59,0.00,CLR,,0.03,0.0,WeatherDisplay:10.37,2013-04-20 08:42:00,
2013-04-20 04:47:00,47.6,34.0,29.86,WNW,288,1.4,3.5,59,0.00,CLR,,0.03,0.0,WeatherDisplay:10.37,2013-04-20 08:47:00,
2013-04-20 04:52:00,47.4,33.8,29.86,WSW,254,1.1,2.3,59,0.00,CLR,,0.03,0.0,WeatherDisplay:10.37,2013-04-20 08:52:00,
2013-04-20 04:57:00,47.4,33.8,29.86,WSW,251,1.5,5.8,59,0.00,CLR,,0.03,0.0,WeatherDisplay:10.37,2013-04-20 08:57:00,
2013-04-20 05:02:00,47.3,32.8,29.86,WNW,298,5.2,11.5,57,0.00,CLR,,0.03,0.0,WeatherDisplay:10.37,2013-04-20 09:02:00,
2013-04-20 05:07:00,47.1,32.2,29.86,NNW,347,2.6,11.5,56,0.00,CLR,,0.03,0.0,WeatherDisplay:10.37,2013-04-20 09:07:00,
2013-04-20 05:12:00,47.1,31.3,29.87,WNW,285,3.0,4.6,54,0.00,CLR,,0.03,0.0,WeatherDisplay:10.37,2013-04-20 09:12:00,
2013-04-20 05:17:00,47.1,30.8,29.87,WNW,285,2.0,4.6,53,0.00,CLR,,0.03,0.0,WeatherDisplay:10.37,2013-04-20 09:17:00,
2013-04-20 05:22:00,47.1,30.8,29.87,West,273,4.5,11.5,53,0.00,CLR,,0.03,0.0,WeatherDisplay:10.37,2013-04-20 09:22:00,
2013-04-20 05:27:00,47.1,30.4,29.88,NW,305,0.8,3.5,52,0.00,CLR,,0.03,0.0,WeatherDisplay:10.37,2013-04-20 09:27:00,
2013-04-20 05:32:00,47.0,30.7,29.88,WSW,238,3.6,6.9,53,0.00,CLR,,0.03,0.0,WeatherDisplay:10.37,2013-04-20 09:32:00,
2013-04-20 05:37:00,47.0,30.7,29.88,SSW,209,1.9,6.0,53,0.00,CLR,,0.03,0.0,WeatherDisplay:10.37,2013-04-20 09:37:00,
2013-04-20 05:42:00,46.8,30.6,29.88,NW,318,1.0,3.5,53,0.00,CLR,,0.03,0.0,WeatherDisplay:10.37,2013-04-20 09:42:00,
2013-04-20 05:47:00,46.7,30.5,29.88,WSW,258,10.0,17.3,53,0.00,CLR,,0.03,0.0,WeatherDisplay:10.37,2013-04-20 09:47:00,
2013-04-20 05:52:00,46.7,30.9,29.88,West,271,3.9,10.4,54,0.00,CLR,,0.03,0.0,WeatherDisplay:10.37,2013-04-20 09:52:00,
2013-04-20 05:57:00,46.5,31.2,29.89,West,265,1.4,5.0,55,0.00,CLR,,0.03,0.0,WeatherDisplay:10.37,2013-04-20 09:57:00,
2013-04-20 06:02:00,46.2,31.4,29.89,West,265,0.0,0.0,56,0.00,CLR,,0.03,0.0,WeatherDisplay:10.37,2013-04-20 10:02:00,
2013-04-20 06:07:00,46.1,31.7,29.89,West,263,0.6,3.5,57,0.00,CLR,,0.03,0.0,WeatherDisplay:10.37,2013-04-20 10:07:00,
2013-04-20 06:12:00,46.0,32.0,29.90,West,265,2.7,8.1,58,0.00,CLR,,0.03,0.0,WeatherDisplay:10.37,2013-04-20 10:12:00,
2013-04-20 06:17:00,45.8,32.3,29.90,West,265,0.7,3.5,59,0.00,CLR,,0.03,0.0,WeatherDisplay:10.37,2013-04-20 10:17:00,
2013-04-20 06:22:00,45.5,32.0,29.90,West,264,3.6,9.2,59,0.00,CLR,,0.03,0.0,WeatherDisplay:10.37,2013-04-20 10:22:00,
2013-04-20 06:27:00,45.4,31.9,29.91,NW,313,7.2,11.5,59,0.00,CLR,,0.03,0.0,WeatherDisplay:10.37,2013-04-20 10:27:00,
2013-04-20 06:32:00,45.2,31.3,29.91,West,271,1.5,3.5,58,0.00,BKN,,0.03,5.0,WeatherDisplay:10.37,2013-04-20 10:32:00,
2013-04-20 06:37:00,45.2,31.7,29.91,SE,139,0.6,2.3,59,0.00,BKN,,0.03,9.0,WeatherDisplay:10.37,2013-04-20 10:37:00,
2013-04-20 06:42:00,45.1,31.6,29.93,West,266,0.9,2.3,59,0.00,BKN,,0.03,11.0,WeatherDisplay:10.37,2013-04-20 10:42:00,
2013-04-20 06:47:00,44.8,30.9,29.93,WNW,285,4.6,10.4,58,0.00,BKN,,0.03,16.0,WeatherDisplay:10.37,2013-04-20 10:47:00,
2013-04-20 06:52:00,44.6,30.7,29.93,SW,225,2.0,10.0,58,0.00,BKN,,0.03,21.0,WeatherDisplay:10.37,2013-04-20 10:52:00,
2013-04-20 06:57:00,44.5,30.2,29.94,WNW,284,2.2,3.5,57,0.00,BKN,,0.03,14.0,WeatherDisplay:10.37,2013-04-20 10:57:00,
2013-04-20 07:02:00,44.3,30.4,29.94,WNW,282,0.4,1.1,58,0.00,BKN,,0.03,26.0,WeatherDisplay:10.37,2013-04-20 11:02:00,
2013-04-20 07:07:00,44.3,30.0,29.94,SW,229,2.7,3.5,57,0.00,BKN,,0.03,25.0,WeatherDisplay:10.37,2013-04-20 11:07:00,
2013-04-20 07:12:00,44.2,29.0,29.95,NW,305,3.0,8.0,55,0.00,BKN,,0.03,28.0,WeatherDisplay:10.37,2013-04-20 11:12:00,
2013-04-20 07:17:00,44.1,28.9,29.95,SW,230,2.2,4.0,55,0.00,BKN,,0.03,30.0,WeatherDisplay:10.37,2013-04-20 11:17:00,
2013-04-20 07:22:00,44.1,29.4,29.95,WSW,256,1.7,3.5,56,0.00,BKN,,0.03,26.0,WeatherDisplay:10.37,2013-04-20 11:22:00,
2013-04-20 07:27:00,43.8,28.7,29.96,WSW,250,3.1,5.8,55,0.00,BKN,,0.03,39.0,WeatherDisplay:10.37,2013-04-20 11:27:00,
2013-04-20 07:32:00,43.6,28.5,29.96,SW,220,0.2,3.5,55,0.00,BKN,,0.03,30.0,WeatherDisplay:10.37,2013-04-20 11:32:00,
2013-04-20 07:37:00,43.5,28.4,29.96,South,186,2.4,5.8,55,0.00,BKN,,0.03,47.0,WeatherDisplay:10.37,2013-04-20 11:37:00,
2013-04-20 07:42:00,43.3,27.8,29.97,SW,228,1.6,4.6,54,0.00,BKN,,0.03,37.0,WeatherDisplay:10.37,2013-04-20 11:42:00,
2013-04-20 07:47:00,43.2,28.1,29.97,SW,225,0.6,3.5,55,0.00,BKN,,0.03,40.0,WeatherDisplay:10.37,2013-04-20 11:47:00,
2013-04-20 07:52:00,43.1,27.6,29.97,WSW,249,2.6,4.6,54,0.00,BKN,,0.03,39.0,WeatherDisplay:10.37,2013-04-20 11:52:00,
2013-04-20 07:57:00,43.1,27.6,29.98,WSW,248,2.0,3.5,54,0.00,BKN,,0.03,37.0,WeatherDisplay:10.37,2013-04-20 11:57:00,
2013-04-20 08:02:00,42.9,27.4,29.98,WSW,244,0.6,2.3,54,0.00,BKN,,0.03,47.0,WeatherDisplay:10.37,2013-04-20 12:02:00,
2013-04-20 08:07:00,42.9,27.4,29.98,SW,214,1.2,2.3,54,0.00,BKN,,0.03,70.0,WeatherDisplay:10.37,2013-04-20 12:07:00,
2013-04-20 08:12:00,42.9,27.8,29.99,WSW,242,2.7,3.5,55,0.00,BKN,,0.03,123.0,WeatherDisplay:10.37,2013-04-20 12:12:00,
2013-04-20 08:17:00,43.2,27.7,29.99,NW,312,1.5,5.8,54,0.00,SCT,,0.03,188.0,WeatherDisplay:10.37,2013-04-20 12:17:00,
2013-04-20 08:22:00,44.2,28.1,29.99,WSW,255,2.6,5.8,53,0.00,CLR,,0.03,304.0,WeatherDisplay:10.37,2013-04-20 12:22:00,
2013-04-20 08:27:00,44.9,27.8,29.99,West,266,2.9,6.9,51,0.00,CLR,,0.03,360.0,WeatherDisplay:10.37,2013-04-20 12:27:00,
2013-04-20 08:32:00,46.1,30.8,29.99,West,268,1.3,3.5,55,0.00,CLR,,0.03,374.0,WeatherDisplay:10.37,2013-04-20 12:32:00,
2013-04-20 08:37:00,46.2,29.1,29.99,West,275,1.1,3.5,51,0.00,CLR,,0.03,369.0,WeatherDisplay:10.37,2013-04-20 12:37:00,
2013-04-20 08:42:00,46.1,28.5,30.00,SW,234,4.4,5.8,50,0.00,CLR,,0.03,376.0,WeatherDisplay:10.37,2013-04-20 12:42:00,
2013-04-20 08:47:00,46.2,27.1,30.00,NW,305,4.5,15.0,47,0.00,CLR,,0.03,455.0,WeatherDisplay:10.37,2013-04-20 12:47:00,
2013-04-20 08:52:00,46.2,27.1,30.00,WNW,301,7.2,15.0,47,0.00,CLR,,0.03,473.0,WeatherDisplay:10.37,2013-04-20 12:52:00,
2013-04-20 08:57:00,46.0,26.4,30.00,WSW,241,2.6,17.3,46,0.00,CLR,,0.03,490.0,WeatherDisplay:10.37,2013-04-20 12:57:00,
2013-04-20 09:02:00,46.5,27.8,30.00,SSW,205,1.7,3.5,48,0.00,CLR,,0.03,504.0,WeatherDisplay:10.37,2013-04-20 13:02:00,
2013-04-20 09:07:00,46.4,27.8,30.00,WSW,258,2.2,12.7,48,0.00,CLR,,0.03,524.0,WeatherDisplay:10.37,2013-04-20 13:07:00,
2013-04-20 09:12:00,47.1,28.9,30.01,NW,307,3.5,5.8,49,0.00,CLR,,0.03,541.0,WeatherDisplay:10.37,2013-04-20 13:12:00,
2013-04-20 09:17:00,48.3,29.5,30.01,WNW,296,0.4,2.3,48,0.00,CLR,,0.03,563.0,WeatherDisplay:10.37,2013-04-20 13:17:00,
2013-04-20 09:22:00,47.3,26.5,30.01,WSW,241,6.1,10.4,44,0.00,CLR,,0.03,573.0,WeatherDisplay:10.37,2013-04-20 13:22:00,
2013-04-20 09:27:00,47.4,27.1,30.02,WSW,243,2.8,9.2,45,0.00,CLR,,0.03,591.0,WeatherDisplay:10.37,2013-04-20 13:27:00,
2013-04-20 09:32:00,48.3,29.5,30.02,NW,313,1.9,3.5,48,0.00,CLR,,0.03,605.0,WeatherDisplay:10.37,2013-04-20 13:32:00,
2013-04-20 09:37:00,47.7,26.8,30.02,WSW,244,7.8,18.4,44,0.00,CLR,,0.03,622.0,WeatherDisplay:10.37,2013-04-20 13:37:00,
2013-04-20 09:42:00,48.2,28.4,30.02,WNW,294,5.2,5.8,46,0.00,CLR,,0.03,645.0,WeatherDisplay:10.37,2013-04-20 13:42:00,
2013-04-20 09:47:00,48.2,28.9,30.02,WSW,250,5.7,19.6,47,0.00,CLR,,0.03,654.0,WeatherDisplay:10.37,2013-04-20 13:47:00,
2013-04-20 09:53:00,48.8,27.8,30.02,WSW,240,3.8,10.4,44,0.00,CLR,,0.03,680.0,WeatherDisplay:10.37,2013-04-20 13:53:00,
2013-04-20 09:57:00,48.9,26.8,30.04,West,261,7.3,15.0,42,0.00,CLR,,0.03,689.0,WeatherDisplay:10.37,2013-04-20 13:57:00,
2013-04-20 10:03:00,48.8,27.8,30.04,West,275,9.1,12.7,44,0.00,CLR,,0.03,710.0,WeatherDisplay:10.37,2013-04-20 14:03:00,
2013-04-20 10:08:00,49.5,27.9,30.04,SW,223,10.6,16.1,43,0.00,CLR,,0.03,719.0,WeatherDisplay:10.37,2013-04-20 14:08:00,
2013-04-20 10:13:00,49.2,27.1,30.04,West,265,5.5,18.4,42,0.00,CLR,,0.03,745.0,WeatherDisplay:10.37,2013-04-20 14:13:00,
2013-04-20 10:18:00,49.4,28.4,30.04,WSW,244,7.3,10.0,44,0.00,CLR,,0.03,821.0,WeatherDisplay:10.37,2013-04-20 14:18:00,
2013-04-20 10:23:00,49.1,28.7,30.04,WNW,284,8.2,16.0,45,0.00,CLR,,0.03,814.0,WeatherDisplay:10.37,2013-04-20 14:23:00,
2013-04-20 10:28:00,48.9,28.5,30.05,NW,315,4.2,7.0,45,0.00,BKN,,0.03,399.0,WeatherDisplay:10.37,2013-04-20 14:28:00,
2013-04-20 10:33:00,48.5,28.6,30.05,WNW,295,4.0,11.5,46,0.00,BKN,,0.03,158.0,WeatherDisplay:10.37,2013-04-20 14:33:00,
2013-04-20 10:38:00,49.5,27.9,30.05,SW,219,4.8,18.4,43,0.00,CLR,,0.03,849.0,WeatherDisplay:10.37,2013-04-20 14:38:00,
2013-04-20 10:43:00,49.8,27.6,30.05,WSW,247,8.5,10.0,42,0.00,CLR,,0.03,178.0,WeatherDisplay:10.37,2013-04-20 14:43:00,
2013-04-20 10:48:00,49.6,29.1,30.05,WSW,245,2.2,6.9,45,0.00,CLR,,0.03,844.0,WeatherDisplay:10.37,2013-04-20 14:48:00,
2013-04-20 10:53:00,50.7,28.4,30.05,South,174,5.3,10.4,42,0.00,CLR,,0.03,853.0,WeatherDisplay:10.37,2013-04-20 14:53:00,
2013-04-20 10:58:00,50.7,29.0,30.06,South,183,4.2,7.0,43,0.00,CLR,,0.03,854.0,WeatherDisplay:10.37,2013-04-20 14:58:00,
2013-04-20 11:03:00,50.7,27.2,30.06,SSW,204,10.3,15.0,40,0.00,CLR,,0.03,875.0,WeatherDisplay:10.37,2013-04-20 15:03:00,
2013-04-20 11:08:00,51.4,30.2,30.06,NE,40,2.7,5.8,44,0.00,CLR,,0.03,867.0,WeatherDisplay:10.37,2013-04-20 15:08:00,
2013-04-20 11:13:00,51.4,27.9,30.06,NW,321,4.1,9.2,40,0.00,CLR,,0.03,875.0,WeatherDisplay:10.37,2013-04-20 15:13:00,
2013-04-20 11:18:00,51.3,27.2,30.06,NW,321,8.7,16.1,39,0.00,CLR,,0.03,886.0,WeatherDisplay:10.37,2013-04-20 15:18:00,
2013-04-20 11:23:00,51.6,30.9,30.06,WSW,256,3.3,10.4,45,0.00,CLR,,0.03,962.0,WeatherDisplay:10.37,2013-04-20 15:23:00,
2013-04-20 11:28:00,51.9,29.5,30.07,West,267,6.2,11.5,42,0.00,BKN,,0.03,302.0,WeatherDisplay:10.37,2013-04-20 15:28:00,
2013-04-20 11:33:00,49.9,28.8,30.07,South,191,2.0,5.8,44,0.00,BKN,,0.03,225.0,WeatherDisplay:10.37,2013-04-20 15:33:00,
2013-04-20 11:38:00,51.9,31.7,30.07,WSW,242,10.2,16.1,46,0.00,CLR,,0.03,946.0,WeatherDisplay:10.37,2013-04-20 15:38:00,
2013-04-20 11:43:00,52.2,29.2,30.06,WSW,242,6.9,23.0,41,0.00,CLR,,0.03,932.0,WeatherDisplay:10.37,2013-04-20 15:43:00,
2013-04-20 11:48:00,52.3,28.1,30.06,WSW,251,5.0,12.0,39,0.00,CLR,,0.03,933.0,WeatherDisplay:10.37,2013-04-20 15:48:00,
2013-04-20 11:53:00,53.1,30.0,30.06,SW,221,6.3,14.0,41,0.00,CLR,,0.03,935.0,WeatherDisplay:10.37,2013-04-20 15:53:00,
2013-04-20 11:58:00,52.9,29.2,30.06,West,277,6.2,12.7,40,0.00,CLR,,0.03,939.0,WeatherDisplay:10.37,2013-04-20 15:58:00,
2013-04-20 12:03:00,53.1,30.6,30.06,West,267,8.0,13.8,42,0.00,CLR,,0.03,954.0,WeatherDisplay:10.37,2013-04-20 16:03:00,
2013-04-20 12:08:00,52.5,28.2,30.06,NW,319,3.8,10.4,39,0.00,CLR,,0.03,965.0,WeatherDisplay:10.37,2013-04-20 16:08:00,
2013-04-20 12:13:00,52.9,29.8,30.07,WSW,242,7.1,10.4,41,0.00,FEW,,0.03,817.0,WeatherDisplay:10.37,2013-04-20 16:13:00,
2013-04-20 12:18:00,54.1,32.1,30.07,SW,233,1.4,5.8,43,0.00,CLR,,0.03,1000.0,WeatherDisplay:10.37,2013-04-20 16:18:00,
2013-04-20 12:23:00,54.4,32.3,30.07,WSW,248,1.1,6.9,43,0.00,CLR,,0.03,988.0,WeatherDisplay:10.37,2013-04-20 16:23:00,
2013-04-20 12:28:00,53.3,28.3,30.06,SW,236,3.2,7.0,38,0.00,CLR,,0.03,1013.0,WeatherDisplay:10.37,2013-04-20 16:28:00,
2013-04-20 12:33:00,54.4,29.9,30.06,SSW,213,10.0,16.1,39,0.00,CLR,,0.03,1083.0,WeatherDisplay:10.37,2013-04-20 16:33:00,
2013-04-20 12:38:00,53.2,30.1,30.06,South,187,3.8,11.5,41,0.00,BKN,,0.03,271.0,WeatherDisplay:10.37,2013-04-20 16:38:00,
2013-04-20 12:43:00,54.4,32.3,30.06,WNW,283,5.9,11.5,43,0.00,CLR,,0.03,1028.0,WeatherDisplay:10.37,2013-04-20 16:43:00,
2013-04-20 12:48:00,53.6,27.9,30.06,WSW,249,7.3,11.5,37,0.00,CLR,,0.03,976.0,WeatherDisplay:10.37,2013-04-20 16:48:00,
2013-04-20 12:53:00,53.9,27.5,30.06,South,169,6.7,10.4,36,0.00,CLR,,0.03,993.0,WeatherDisplay:10.37,2013-04-20 16:53:00,
2013-04-20 12:58:00,54.8,30.9,30.05,WSW,251,3.5,5.8,40,0.00,CLR,,0.03,991.0,WeatherDisplay:10.37,2013-04-20 16:58:00,
2013-04-20 13:03:00,54.8,29.7,30.05,NNW,337,3.3,9.0,38,0.00,CLR,,0.03,993.0,WeatherDisplay:10.37,2013-04-20 17:03:00,
2013-04-20 13:08:00,55.0,32.9,30.05,NW,305,5.8,10.4,43,0.00,CLR,,0.03,1021.0,WeatherDisplay:10.37,2013-04-20 17:08:00,
2013-04-20 13:13:00,53.6,28.6,30.06,NNE,13,3.9,11.5,38,0.00,CLR,,0.03,1060.0,WeatherDisplay:10.37,2013-04-20 17:13:00,
2013-04-20 13:18:00,54.1,30.3,30.06,WNW,283,6.0,11.5,40,0.00,CLR,,0.03,1016.0,WeatherDisplay:10.37,2013-04-20 17:18:00,
2013-04-20 13:23:00,53.5,27.8,30.06,West,279,5.9,11.5,37,0.00,BKN,,0.03,343.0,WeatherDisplay:10.37,2013-04-20 17:23:00,
2013-04-20 13:28:00,53.6,28.6,30.07,NNW,338,1.0,6.9,38,0.00,CLR,,0.03,967.0,WeatherDisplay:10.37,2013-04-20 17:28:00,
2013-04-20 13:33:00,55.0,31.1,30.07,West,279,3.0,5.0,40,0.00,CLR,,0.03,1011.0,WeatherDisplay:10.37,2013-04-20 17:33:00,
2013-04-20 13:38:00,54.8,27.6,30.07,West,261,8.1,11.5,35,0.00,CLR,,0.03,1025.0,WeatherDisplay:10.37,2013-04-20 17:38:00,
2013-04-20 13:43:00,54.4,28.6,30.06,West,265,3.5,13.8,37,0.00,CLR,,0.03,1123.0,WeatherDisplay:10.37,2013-04-20 17:43:00,
2013-04-20 13:48:00,55.3,28.1,30.06,West,264,6.0,12.7,35,0.00,CLR,,0.03,1104.0,WeatherDisplay:10.37,2013-04-20 17:48:00,
2013-04-20 13:53:00,54.1,27.0,30.06,SW,233,7.7,11.5,35,0.00,CLR,,0.03,1109.0,WeatherDisplay:10.37,2013-04-20 17:53:00,
2013-04-20 13:58:00,54.2,30.4,30.06,WSW,257,4.1,6.0,40,0.00,CLR,,0.03,853.0,WeatherDisplay:10.37,2013-04-20 17:58:00,
2013-04-20 14:03:00,55.0,27.8,30.06,WSW,248,5.3,12.7,35,0.00,BKN,,0.03,954.0,WeatherDisplay:10.37,2013-04-20 18:03:00,
2013-04-20 14:08:00,55.1,29.3,30.06,West,267,3.6,16.0,37,0.00,CLR,,0.03,954.0,WeatherDisplay:10.37,2013-04-20 18:08:00,
2013-04-20 14:13:00,54.2,27.8,30.06,West,271,5.4,12.0,36,0.00,CLR,,0.03,942.0,WeatherDisplay:10.37,2013-04-20 18:13:00,
2013-04-20 14:18:00,54.8,26.9,30.06,West,279,12.8,20.7,34,0.00,CLR,,0.03,937.0,WeatherDisplay:10.37,2013-04-20 18:18:00,
2013-04-20 14:23:00,55.4,30.8,30.06,SSW,200,6.0,11.5,39,0.00,CLR,,0.03,956.0,WeatherDisplay:10.37,2013-04-20 18:23:00,
2013-04-20 14:28:00,56.0,29.4,30.07,SSW,194,3.2,11.5,36,0.00,CLR,,0.03,958.0,WeatherDisplay:10.37,2013-04-20 18:28:00,
2013-04-20 14:33:00,56.2,27.4,30.07,NNW,329,5.9,12.7,33,0.00,CLR,,0.03,932.0,WeatherDisplay:10.37,2013-04-20 18:33:00,
2013-04-20 14:38:00,55.1,26.5,30.07,WSW,254,7.3,17.3,33,0.00,CLR,,0.03,925.0,WeatherDisplay:10.37,2013-04-20 18:38:00,
2013-04-20 14:43:00,55.4,28.2,30.06,West,278,6.5,12.7,35,0.00,CLR,,0.03,926.0,WeatherDisplay:10.37,2013-04-20 18:43:00,
2013-04-20 14:48:00,55.9,29.3,30.06,SSW,192,4.5,8.1,36,0.00,CLR,,0.03,937.0,WeatherDisplay:10.37,2013-04-20 18:48:00,
2013-04-20 14:53:00,56.9,27.3,30.06,SW,236,12.3,21.9,32,0.00,CLR,,0.03,967.0,WeatherDisplay:10.37,2013-04-20 18:53:00,
2013-04-20 14:58:00,56.0,28.7,30.06,SW,230,3.9,11.5,35,0.00,CLR,,0.03,891.0,WeatherDisplay:10.37,2013-04-20 18:58:00,
2013-04-20 15:03:00,54.1,26.3,30.06,North,5,4.6,9.2,34,0.00,BKN,,0.03,967.0,WeatherDisplay:10.37,2013-04-20 19:03:00,
2013-04-20 15:08:00,55.6,28.4,30.06,West,280,5.2,10.0,35,0.00,CLR,,0.03,867.0,WeatherDisplay:10.37,2013-04-20 19:08:00,
2013-04-20 15:13:00,55.7,28.4,30.07,WNW,294,7.7,7.7,35,0.00,CLR,,0.03,893.0,WeatherDisplay:10.37,2013-04-20 19:13:00,
2013-04-20 15:18:00,55.7,24.7,30.07,West,262,6.9,11.5,30,0.00,CLR,,0.03,824.0,WeatherDisplay:10.37,2013-04-20 19:18:00,
2013-04-20 15:23:00,56.6,31.3,30.07,West,259,4.2,6.9,38,0.00,CLR,,0.03,874.0,WeatherDisplay:10.37,2013-04-20 19:23:00,
2013-04-20 15:28:00,56.9,28.8,30.07,WSW,250,5.9,11.0,34,0.00,CLR,,0.03,861.0,WeatherDisplay:10.37,2013-04-20 19:28:00,
2013-04-20 15:33:00,56.3,29.0,30.07,WNW,288,1.9,4.6,35,0.00,CLR,,0.03,861.0,WeatherDisplay:10.37,2013-04-20 19:33:00,
2013-04-20 15:38:00,56.2,25.9,30.07,NE,37,4.5,10.4,31,0.00,CLR,,0.03,854.0,WeatherDisplay:10.37,2013-04-20 19:38:00,
2013-04-20 15:43:00,56.9,31.5,30.07,West,267,4.1,5.8,38,0.00,CLR,,0.03,898.0,WeatherDisplay:10.37,2013-04-20 19:43:00,
2013-04-20 15:48:00,57.5,28.6,30.07,NNW,329,4.7,4.7,33,0.00,CLR,,0.03,206.0,WeatherDisplay:10.37,2013-04-20 19:48:00,
2013-04-20 15:53:00,55.4,26.7,30.08,NNW,346,4.8,12.7,33,0.00,BKN,,0.03,807.0,WeatherDisplay:10.37,2013-04-20 19:53:00,
2013-04-20 15:58:00,55.1,25.7,30.08,WNW,283,3.1,6.0,32,0.00,CLR,,0.03,146.0,WeatherDisplay:10.37,2013-04-20 19:58:00,
2013-04-20 16:03:00,55.9,27.2,30.08,West,266,6.2,10.4,33,0.00,CLR,,0.03,752.0,WeatherDisplay:10.37,2013-04-20 20:03:00,
2013-04-20 16:08:00,56.5,27.0,30.08,West,259,3.4,9.2,32,0.00,FEW,,0.03,548.0,WeatherDisplay:10.37,2013-04-20 20:08:00,
2013-04-20 16:13:00,56.9,28.1,30.08,NW,321,4.9,9.2,33,0.00,CLR,,0.03,717.0,WeatherDisplay:10.37,2013-04-20 20:13:00,
2013-04-20 16:19:00,56.2,25.9,30.08,SW,220,5.0,9.2,31,0.00,BKN,,0.03,193.0,WeatherDisplay:10.37,2013-04-20 20:19:00,
2013-04-20 16:24:00,55.7,25.5,30.09,SW,223,7.0,9.0,31,0.00,CLR,,0.03,759.0,WeatherDisplay:10.37,2013-04-20 20:24:00,
2013-04-20 16:29:00,56.5,27.0,30.09,SW,221,3.5,11.5,32,0.00,CLR,,0.03,763.0,WeatherDisplay:10.37,2013-04-20 20:29:00,
2013-04-20 16:34:00,56.7,24.8,30.09,WSW,249,5.6,17.3,29,0.00,CLR,,0.03,178.0,WeatherDisplay:10.37,2013-04-20 20:34:00,
2013-04-20 16:39:00,55.9,27.9,30.09,West,268,3.4,6.9,34,0.00,CLR,,0.03,677.0,WeatherDisplay:10.37,2013-04-20 20:39:00,
2013-04-20 16:44:00,55.6,28.4,30.09,North,5,3.6,6.0,35,0.00,CLR,,0.03,726.0,WeatherDisplay:10.37,2013-04-20 20:44:00,
2013-04-20 16:49:00,55.9,27.2,30.09,NW,314,5.2,19.6,33,0.00,CLR,,0.03,654.0,WeatherDisplay:10.37,2013-04-20 20:49:00,
2013-04-20 16:54:00,56.3,26.0,30.10,SSW,212,10.5,11.5,31,0.00,CLR,,0.03,578.0,WeatherDisplay:10.37,2013-04-20 20:54:00,
2013-04-20 16:59:00,56.7,30.0,30.10,West,268,4.7,11.5,36,0.00,CLR,,0.03,585.0,WeatherDisplay:10.37,2013-04-20 20:59:00,
2013-04-20 17:04:00,56.6,26.3,30.10,SW,234,6.3,12.7,31,0.00,CLR,,0.03,584.0,WeatherDisplay:10.37,2013-04-20 21:04:00,
2013-04-20 17:09:00,56.5,29.8,30.10,WSW,254,3.1,3.5,36,0.00,CLR,,0.03,536.0,WeatherDisplay:10.37,2013-04-20 21:09:00,
2013-04-20 17:14:00,56.5,25.4,30.10,West,272,2.2,11.5,30,0.00,CLR,,0.03,490.0,WeatherDisplay:10.37,2013-04-20 21:14:00,
2013-04-20 17:19:00,55.7,23.1,30.10,WNW,297,6.0,11.5,28,0.00,CLR,,0.03,464.0,WeatherDisplay:10.37,2013-04-20 21:19:00,
2013-04-20 17:24:00,55.6,25.4,30.11,SE,146,3.3,10.4,31,0.00,CLR,,0.03,476.0,WeatherDisplay:10.37,2013-04-20 21:24:00,
2013-04-20 17:29:00,55.7,26.3,30.11,NE,34,1.2,3.5,32,0.00,CLR,,0.03,448.0,WeatherDisplay:10.37,2013-04-20 21:29:00,
2013-04-20 17:34:00,55.7,24.7,30.11,WSW,238,2.3,4.6,30,0.00,BKN,,0.03,90.0,WeatherDisplay:10.37,2013-04-20 21:34:00,
2013-04-20 17:39:00,55.6,26.2,30.12,West,272,4.1,15.0,32,0.00,CLR,,0.03,390.0,WeatherDisplay:10.37,2013-04-20 21:39:00,
2013-04-20 17:44:00,55.4,22.8,30.12,NW,304,2.4,8.1,28,0.00,CLR,,0.03,380.0,WeatherDisplay:10.37,2013-04-20 21:44:00,
2013-04-20 17:49:00,55.3,24.4,30.12,SSW,211,2.1,3.5,30,0.00,CLR,,0.03,346.0,WeatherDisplay:10.37,2013-04-20 21:49:00,
2013-04-20 17:54:00,55.3,24.4,30.13,WSW,251,0.0,0.0,30,0.00,CLR,,0.03,352.0,WeatherDisplay:10.37,2013-04-20 21:54:00,
2013-04-20 17:59:00,55.4,24.4,30.13,NNW,346,3.0,6.9,30,0.00,CLR,,0.03,311.0,WeatherDisplay:10.37,2013-04-20 21:59:00,
2013-04-20 18:04:00,55.1,23.4,30.13,West,271,0.9,5.0,29,0.00,CLR,,0.03,295.0,WeatherDisplay:10.37,2013-04-20 22:04:00,
2013-04-20 18:09:00,55.3,23.5,30.13,SW,219,1.8,9.2,29,0.00,CLR,,0.03,276.0,WeatherDisplay:10.37,2013-04-20 22:09:00,
2013-04-20 18:14:00,55.3,25.1,30.13,West,266,1.6,3.5,31,0.00,CLR,,0.03,257.0,WeatherDisplay:10.37,2013-04-20 22:14:00,
2013-04-20 18:19:00,55.3,23.5,30.13,NW,325,1.1,4.6,29,0.00,CLR,,0.03,236.0,WeatherDisplay:10.37,2013-04-20 22:19:00,
2013-04-20 18:24:00,55.3,23.5,30.14,WNW,290,4.7,10.4,29,0.00,SCT,,0.03,123.0,WeatherDisplay:10.37,2013-04-20 22:24:00,
2013-04-20 18:29:00,55.1,25.0,30.14,SSW,198,2.7,5.0,31,0.00,CLR,,0.03,202.0,WeatherDisplay:10.37,2013-04-20 22:29:00,
2013-04-20 18:34:00,54.8,26.2,30.14,NNW,340,4.0,5.8,33,0.00,CLR,,0.03,183.0,WeatherDisplay:10.37,2013-04-20 22:34:00,
2013-04-20 18:39:00,54.7,25.4,30.15,West,261,2.2,5.0,32,0.00,CLR,,0.03,165.0,WeatherDisplay:10.37,2013-04-20 22:39:00,
2013-04-20 18:44:00,54.5,25.2,30.15,North,350,0.2,2.3,32,0.00,CLR,,0.03,153.0,WeatherDisplay:10.37,2013-04-20 22:44:00,
2013-04-20 18:49:00,54.5,23.7,30.15,NNW,333,3.2,6.9,30,0.00,CLR,,0.03,134.0,WeatherDisplay:10.37,2013-04-20 22:49:00,
2013-04-20 18:54:00,54.2,24.2,30.15,NNW,331,0.5,3.5,31,0.00,BKN,,0.03,63.0,WeatherDisplay:10.37,2013-04-20 22:54:00,
2013-04-20 18:59:00,53.9,23.9,30.15,SW,232,2.6,5.8,31,0.00,BKN,,0.03,53.0,WeatherDisplay:10.37,2013-04-20 22:59:00,
2013-04-20 19:04:00,53.5,25.1,30.15,NW,311,2.3,3.5,33,0.00,BKN,,0.03,40.0,WeatherDisplay:10.37,2013-04-20 23:04:00,
2013-04-20 19:09:00,53.1,24.7,30.17,NNW,345,2.7,5.0,33,0.00,BKN,,0.03,32.0,WeatherDisplay:10.37,2013-04-20 23:09:00,
2013-04-20 19:14:00,52.8,25.2,30.17,WNW,298,0.1,4.6,34,0.00,BKN,,0.03,28.0,WeatherDisplay:10.37,2013-04-20 23:14:00,
2013-04-20 19:19:00,52.5,25.6,30.17,NNW,344,0.2,2.3,35,0.00,BKN,,0.03,23.0,WeatherDisplay:10.37,2013-04-20 23:19:00,
2013-04-20 19:24:00,52.2,26.0,30.17,NNW,341,0.9,4.6,36,0.00,BKN,,0.03,21.0,WeatherDisplay:10.37,2013-04-20 23:24:00,
2013-04-20 19:29:00,51.9,25.8,30.17,NNW,346,1.8,3.5,36,0.00,BKN,,0.03,18.0,WeatherDisplay:10.37,2013-04-20 23:29:00,
2013-04-20 19:34:00,51.6,26.1,30.17,NNE,15,0.6,2.3,37,0.00,BKN,,0.03,14.0,WeatherDisplay:10.37,2013-04-20 23:34:00,
2013-04-20 19:39:00,51.3,25.9,30.18,NNE,15,0.0,0.0,37,0.00,SCT,,0.03,11.0,WeatherDisplay:10.37,2013-04-20 23:39:00,
2013-04-20 19:44:00,51.0,26.9,30.18,NNE,12,2.7,4.6,39,0.00,FEW,,0.03,9.0,WeatherDisplay:10.37,2013-04-20 23:44:00,
2013-04-20 19:49:00,50.7,27.2,30.18,NNW,338,0.0,1.1,40,0.00,CLR,,0.03,5.0,WeatherDisplay:10.37,2013-04-20 23:49:00,
2013-04-20 19:54:00,50.4,27.0,30.19,NNW,338,0.4,2.3,40,0.00,CLR,,0.03,0.0,WeatherDisplay:10.37,2013-04-20 23:54:00,
2013-04-20 19:59:00,50.1,27.3,30.19,ENE,65,0.3,2.0,41,0.00,CLR,,0.03,0.0,WeatherDisplay:10.37,2013-04-20 23:59:00,
2013-04-20 20:04:00,49.6,28.6,30.19,ENE,64,0.9,2.3,44,0.00,CLR,,0.03,0.0,WeatherDisplay:10.37,2013-04-21 00:04:00,
2013-04-20 20:09:00,49.4,26.7,30.20,NNW,345,0.0,1.1,41,0.00,CLR,,0.03,0.0,WeatherDisplay:10.37,2013-04-21 00:09:00,
2013-04-20 20:14:00,49.1,26.4,30.20,NNW,339,0.0,1.1,41,0.00,CLR,,0.03,0.0,WeatherDisplay:10.37,2013-04-21 00:14:00,
2013-04-20 20:19:00,48.9,26.8,30.20,ENE,76,2.2,3.5,42,0.00,CLR,,0.03,0.0,WeatherDisplay:10.37,2013-04-21 00:19:00,
2013-04-20 20:24:00,48.8,26.7,30.21,NNW,336,0.7,2.3,42,0.00,CLR,,0.03,0.0,WeatherDisplay:10.37,2013-04-21 00:24:00,
2013-04-20 20:29:00,48.6,25.9,30.21,NNW,334,0.4,2.3,41,0.00,CLR,,0.03,0.0,WeatherDisplay:10.37,2013-04-21 00:29:00,
2013-04-20 20:34:00,48.5,25.8,30.21,NNW,333,0.3,3.5,41,0.00,CLR,,0.03,0.0,WeatherDisplay:10.37,2013-04-21 00:34:00,
2013-04-20 20:39:00,48.3,25.7,30.23,NNW,336,0.2,1.1,41,0.00,CLR,,0.03,0.0,WeatherDisplay:10.37,2013-04-21 00:39:00,
2013-04-20 20:44:00,47.9,25.9,30.23,NNW,336,0.1,1.1,42,0.00,CLR,,0.03,0.0,WeatherDisplay:10.37,2013-04-21 00:44:00,
2013-04-20 20:49:00,47.7,25.7,30.23,NNW,336,0.0,0.0,42,0.00,CLR,,0.03,0.0,WeatherDisplay:10.37,2013-04-21 00:49:00,
2013-04-20 20:54:00,47.6,25.0,30.25,North,5,0.0,2.3,41,0.00,CLR,,0.03,0.0,WeatherDisplay:10.37,2013-04-21 00:54:00,
2013-04-20 20:59:00,47.6,25.0,30.25,North,5,0.1,1.1,41,0.00,CLR,,0.03,0.0,WeatherDisplay:10.37,2013-04-21 00:59:00,
2013-04-20 21:04:00,47.3,25.9,30.25,North,5,0.0,0.0,43,0.00,CLR,,0.03,0.0,WeatherDisplay:10.37,2013-04-21 01:04:00,
2013-04-20 21:09:00,47.1,25.7,30.26,North,5,0.0,0.0,43,0.00,CLR,,0.03,0.0,WeatherDisplay:10.37,2013-04-21 01:09:00,
2013-04-20 21:14:00,46.8,26.0,30.26,North,360,0.0,0.0,44,0.00,CLR,,0.03,0.0,WeatherDisplay:10.37,2013-04-21 01:14:00,
2013-04-20 21:19:00,46.7,25.4,30.26,North,360,0.0,0.0,43,0.00,CLR,,0.03,0.0,WeatherDisplay:10.37,2013-04-21 01:19:00,
2013-04-20 21:24:00,46.5,25.2,30.27,North,360,0.0,0.0,43,0.00,CLR,,0.03,0.0,WeatherDisplay:10.37,2013-04-21 01:24:00,
2013-04-20 21:29:00,46.4,25.6,30.27,North,360,0.0,0.0,44,0.00,CLR,,0.03,0.0,WeatherDisplay:10.37,2013-04-21 01:29:00,
2013-04-20 21:34:00,46.2,26.5,30.27,North,360,0.0,0.0,46,0.00,CLR,,0.03,0.0,WeatherDisplay:10.37,2013-04-21 01:34:00,
2013-04-20 21:39:00,46.0,26.9,30.27,North,360,0.0,0.0,47,0.00,CLR,,0.03,0.0,WeatherDisplay:10.37,2013-04-21 01:39:00,
2013-04-20 21:44:00,45.7,27.6,30.27,North,360,0.0,0.0,49,0.00,CLR,,0.03,0.0,WeatherDisplay:10.37,2013-04-21 01:44:00,
2013-04-20 21:49:00,45.4,27.8,30.27,North,360,0.0,0.0,50,0.00,CLR,,0.03,0.0,WeatherDisplay:10.37,2013-04-21 01:49:00,
2013-04-20 21:54:00,45.1,27.6,30.28,North,360,0.0,1.1,50,0.00,CLR,,0.03,0.0,WeatherDisplay:10.37,2013-04-21 01:54:00,
2013-04-20 21:59:00,44.8,28.7,30.28,North,360,0.7,3.5,53,0.00,CLR,,0.03,0.0,WeatherDisplay:10.37,2013-04-21 01:59:00,
2013-04-20 22:04:00,44.5,28.4,30.28,North,360,0.0,0.0,53,0.00,CLR,,0.03,0.0,WeatherDisplay:10.37,2013-04-21 02:04:00,
2013-04-20 22:09:00,44.3,27.8,30.29,North,360,0.5,2.3,52,0.00,CLR,,0.03,0.0,WeatherDisplay:10.37,2013-04-21 02:09:00,
2013-04-20 22:14:00,44.1,28.0,30.29,North,360,0.0,0.0,53,0.00,CLR,,0.03,0.0,WeatherDisplay:10.37,2013-04-21 02:14:00,
2013-04-20 22:19:00,43.9,27.9,30.29,North,360,0.2,3.5,53,0.00,CLR,,0.03,0.0,WeatherDisplay:10.37,2013-04-21 02:19:00,
2013-04-20 22:24:00,43.8,28.7,30.29,North,360,0.7,2.3,55,0.00,CLR,,0.03,0.0,WeatherDisplay:10.37,2013-04-21 02:24:00,
2013-04-20 22:29:00,43.8,28.2,30.29,North,360,0.0,3.0,54,0.00,CLR,,0.03,0.0,WeatherDisplay:10.37,2013-04-21 02:29:00,
2013-04-20 22:34:00,43.8,27.8,30.29,North,360,0.2,1.1,53,0.00,CLR,,0.03,0.0,WeatherDisplay:10.37,2013-04-21 02:34:00,
2013-04-20 22:39:00,43.8,26.8,30.30,North,360,2.2,4.0,51,0.00,CLR,,0.03,0.0,WeatherDisplay:10.37,2013-04-21 02:39:00,
2013-04-20 22:44:00,43.8,26.8,30.30,North,360,0.1,1.1,51,0.00,CLR,,0.03,0.0,WeatherDisplay:10.37,2013-04-21 02:44:00,
2013-04-20 22:49:00,43.8,26.3,30.30,North,360,0.9,3.5,50,0.00,CLR,,0.03,0.0,WeatherDisplay:10.37,2013-04-21 02:49:00,
2013-04-20 22:54:00,43.6,27.1,30.31,North,355,1.5,3.0,52,0.00,CLR,,0.03,0.0,WeatherDisplay:10.37,2013-04-21 02:54:00,
2013-04-20 22:59:00,43.5,27.0,30.31,North,355,0.2,1.1,52,0.00,CLR,,0.03,0.0,WeatherDisplay:10.37,2013-04-21 02:59:00,
2013-04-20 23:04:00,43.3,27.3,30.31,NNW,342,0.0,1.1,53,0.00,CLR,,0.03,0.0,WeatherDisplay:10.37,2013-04-21 03:04:00,
2013-04-20 23:09:00,43.2,27.2,30.31,NNW,342,1.1,1.1,53,0.00,CLR,,0.03,0.0,WeatherDisplay:10.37,2013-04-21 03:09:00,
2013-04-20 23:15:00,43.1,26.7,30.31,NNW,337,0.6,0.0,52,0.00,CLR,,0.03,0.0,WeatherDisplay:10.37,2013-04-21 03:15:00,
2013-04-20 23:20:00,42.9,26.5,30.31,NNW,336,2.0,2.0,52,0.00,CLR,,0.03,0.0,WeatherDisplay:10.37,2013-04-21 03:20:00,
2013-04-20 23:25:00,42.8,26.4,30.31,NNW,336,0.0,0.0,52,0.00,CLR,,0.03,0.0,WeatherDisplay:10.37,2013-04-21 03:25:00,
2013-04-20 23:30:00,42.8,27.3,30.31,NNW,336,0.6,1.1,54,0.00,CLR,,0.03,0.0,WeatherDisplay:10.37,2013-04-21 03:30:00,
2013-04-20 23:35:00,42.6,27.5,30.31,NNW,336,0.0,0.0,55,0.00,CLR,,0.03,0.0,WeatherDisplay:10.37,2013-04-21 03:35:00,
2013-04-20 23:40:00,42.5,27.5,30.32,NNW,336,0.2,2.3,55,0.00,CLR,,0.03,0.0,WeatherDisplay:10.37,2013-04-21 03:40:00,
2013-04-20 23:45:00,42.3,27.3,30.32,NNW,336,0.0,1.1,55,0.00,CLR,,0.03,0.0,WeatherDisplay:10.37,2013-04-21 03:45:00,
2013-04-20 23:50:00,42.2,27.6,30.32,NNW,336,0.1,0.0,56,0.00,CLR,,0.03,0.0,WeatherDisplay:10.37,2013-04-21 03:50:00,
2013-04-20 23:55:00,42.1,27.5,30.33,NNW,336,0.1,1.1,56,0.00,CLR,,0.03,0.0,WeatherDisplay:10.37,2013-04-21 03:55:00,